DECAYED
Showing default

KAZSCISAT-1, 43787 (Decayed)

Orbit data source: Space-Track

KAZSCISAT-1, 43787 was a payload satellite owned by Ghalam LLP (KZ) in LEO that was launched on Mon, 03 Dec 2018 UTC via an FALCON 9 launch vehicle from the Air Force Western Test Range (AFWTR). Payload-class satellites include a variety of spacecraft equipped with specific instruments for various scientific and technological missions. These include communications satellites like Starlink; space stations such as the ISS; scientific satellites like the Hubble; Earth observation satellites from companies like Planet Labs, Umbra, and HawkEye 360; GPS; miniature CubeSats for education and research; and military/defense satellites.

Not visible in the next 10 days
Identifier
43787, 2018-099AF
Orbit
Decayed
Country
Flag of KZKZ / KAZ
Related business
Manufacturer
Ghalam LLP
Mission
Decayed Commercial Science
Bus & Motor
CUBESAT 3U, Unknown motor
Mass
4 kg wet, 4 kg dry
Launch date (UTC)
2018-12-03 (7 years ago)
Launch vehicle
FALCON 9
Launch site
Air Force Western Test Range (AFWTR)
Object type
Payload
Rocket body
Debris
Shape & HBR
Box, 0.1 m
Radar Cross Section
0.035 m², Small (<0.1 m²)

Expand to show TLE details & history
Last TLE update: 2 months ago

TLE from 2 months ago
0 KAZSCISAT-1
1 43787U 18099AF  25199.14834682  .10732310  25516-5  11762-2 0  9998
2 43787  97.4305 273.6940 0017686 269.2905  90.6366 16.36790089363855
Epoch: 2025-07-18T03:33Z
TLE epoch observation values (Epoch: 2025-07-18T03:33:37.165Z)
Latitude
-0.00002°
Longitude
-75.91482°
Altitude
177.751 km
Speed
7.799 km/s
True Right ascension
18h 14m 46s
True Declination
0° 00' 00"
Sunlit
Object was in full shadow at epoch
Visualization orbit readout
Latitude
Unknown
Longitude
Unknown
Altitude
Unknown
Speed
Unknown
Apparent Right ascension
Unknown
Apparent Declination
Unknown
Sunlit
N/A
Visualization observer readout
Local Sidereal Time
11:07:33
Azimuth
Unknown
Elevation
Unknown
Doppler factor
Unknown
Orbital elements
Apogee altitude
182.751 km
Perigee altitude
159.585 km
Semi-major axis
6,549.305 km
Eccentricity
0.00177
Inclination
97.4305°
RAAN
273.694°
Arg. of periapsis
269.2905°
True anomaly
90.83925°
Mean anomaly
90.6366°
Eccentric anomaly
90.73792°
Mean motion
4.09497 °/min
Orbital period
87.91 mins
BSTAR
0.0011762
Loading maneuver chart data...
Computing Atmospheric mass density...
Loading historical data...
Loading historical data...
Loading historical data...
Loading historical data...
Loading historical data...
Loading historical data...
Loading historical data...

Documentation

Showing up to 5 results
|